TimeMDT,TemperatureF,Dew PointF,Humidity,Sea Level PressureIn,VisibilityMPH,Wind Direction,Wind SpeedMPH,Gust SpeedMPH,PrecipitationIn,Events,Conditions,WindDirDegrees,DateUTC
12:14 AM,53.6,41.0,62,30.24,10.0,Calm,Calm,-,N/A,,Clear,0,2013-09-20 06:14:00
12:35 AM,51.8,41.0,67,30.24,10.0,Calm,Calm,-,N/A,,Clear,0,2013-09-20 06:35:00
12:55 AM,50.0,41.0,71,30.23,10.0,West,3.5,-,N/A,,Clear,260,2013-09-20 06:55:00
1:15 AM,50.0,41.0,71,30.23,10.0,Calm,Calm,-,N/A,,Clear,0,2013-09-20 07:15:00
1:35 AM,50.0,41.0,71,30.23,10.0,West,5.8,-,N/A,,Clear,270,2013-09-20 07:35:00
1:55 AM,50.0,41.0,71,30.23,10.0,West,4.6,-,N/A,,Clear,280,2013-09-20 07:55:00
2:14 AM,50.0,41.0,71,30.23,10.0,West,4.6,-,N/A,,Clear,280,2013-09-20 08:14:00
2:35 AM,51.8,39.2,62,30.23,10.0,West,4.6,-,N/A,,Scattered Clouds,280,2013-09-20 08:35:00
2:55 AM,51.8,39.2,62,30.23,10.0,West,3.5,-,N/A,,Scattered Clouds,270,2013-09-20 08:55:00
3:15 AM,51.8,39.2,62,30.22,10.0,West,3.5,-,N/A,,Scattered Clouds,280,2013-09-20 09:15:00
3:35 AM,51.8,41.0,67,30.22,10.0,Calm,Calm,-,N/A,,Scattered Clouds,0,2013-09-20 09:35:00
3:55 AM,51.8,41.0,67,30.22,10.0,North,5.8,-,N/A,,Mostly Cloudy,360,2013-09-20 09:55:00
4:14 AM,51.8,41.0,67,30.22,10.0,NNW,6.9,-,N/A,,Overcast,340,2013-09-20 10:14:00
4:34 AM,51.8,41.0,67,30.22,10.0,North,9.2,-,N/A,,Overcast,350,2013-09-20 10:34:00
4:55 AM,51.8,41.0,67,30.22,10.0,NNW,11.5,-,N/A,,Overcast,340,2013-09-20 10:55:00
5:15 AM,50.0,41.0,71,30.21,10.0,North,15.0,-,N/A,,Mostly Cloudy,350,2013-09-20 11:15:00
5:35 AM,50.0,41.0,71,30.21,10.0,North,12.7,-,N/A,,Mostly Cloudy,350,2013-09-20 11:35:00
5:47 AM,50.0,42.8,76,30.21,20.0,NNW,11.5,-,N/A,,Mostly Cloudy,340,2013-09-20 11:47:00
5:55 AM,48.2,42.8,82,30.21,10.0,NNW,11.5,-,N/A,,Scattered Clouds,340,2013-09-20 11:55:00
6:47 AM,48.2,41.0,76,30.21,30.0,NNW,12.7,-,N/A,,Scattered Clouds,330,2013-09-20 12:47:00
7:47 AM,50.0,41.0,71,30.22,30.0,NNW,4.6,-,N/A,,Clear,330,2013-09-20 13:47:00
8:47 AM,53.6,41.0,62,30.22,30.0,North,4.6,-,N/A,,Clear,350,2013-09-20 14:47:00
9:50 AM,57.2,41.0,55,30.22,30.0,North,5.8,-,N/A,,Clear,350,2013-09-20 15:50:00
10:47 AM,59.0,41.0,51,30.22,30.0,Calm,Calm,-,N/A,,Clear,0,2013-09-20 16:47:00
11:47 AM,62.6,42.8,48,30.20,30.0,Calm,Calm,-,N/A,,Clear,0,2013-09-20 17:47:00
12:47 PM,64.4,39.2,40,30.18,30.0,SSW,3.5,-,N/A,,Partly Cloudy,200,2013-09-20 18:47:00
1:50 PM,68.0,35.6,30,30.15,30.0,Variable,4.6,-,N/A,,Partly Cloudy,0,2013-09-20 19:50:00
2:47 PM,69.8,37.4,31,30.13,30.0,Calm,Calm,-,N/A,,Partly Cloudy,0,2013-09-20 20:47:00
3:47 PM,71.6,33.8,25,30.13,30.0,Variable,3.5,-,N/A,,Partly Cloudy,0,2013-09-20 21:47:00
4:45 PM,71.6,35.6,27,30.11,30.0,ESE,4.6,-,N/A,,Partly Cloudy,110,2013-09-20 22:45:00
6:50 PM,68.0,35.6,30,30.10,40.0,Variable,3.5,-,N/A,,Clear,0,2013-09-21 00:50:00
7:50 PM,64.4,41.0,42,30.11,30.0,NNW,5.8,-,N/A,,Clear,330,2013-09-21 01:50:00
8:52 PM,64.4,41.0,42,30.12,30.0,NW,5.8,-,N/A,,Clear,320,2013-09-21 02:52:00
9:49 PM,62.6,41.0,45,30.12,30.0,WNW,5.8,-,N/A,,Clear,300,2013-09-21 03:49:00
11:15 PM,59.0,41.0,51,30.11,10.0,Calm,Calm,-,N/A,,Clear,0,2013-09-21 05:15:00
11:35 PM,55.4,41.0,58,30.10,10.0,West,3.5,-,N/A,,Clear,270,2013-09-21 05:35:00
11:55 PM,59.0,41.0,51,30.10,10.0,West,3.5,-,N/A,,Clear,260,2013-09-21 05:55:00